GFSFLT2_850_dewp_084.txt.gz
Dewpoint
10 9 10 11 12 7 7 6 5 3 -6 -12 -8 1 4 3 0 -1 -1 0 1 1 -0 4 6 5 5 5 5 5 5 3
7 9 7 12 12 9 8 6 5 1 -9 -11 -4 2 2 3 2 0 -0 1 1 2 3 -0 4 5 4 4 3 3 2 1
8 8 8 11 12 10 9 7 4 -5 -11 -6 1 4 4 4 2 1 1 1 2 3 4 4 2 4 4 3 2 1 -0 -3
11 12 13 11 11 10 8 4 -2 -8 -5 1 3 3 3 2 2 1 1 2 3 4 5 4 5 1 1 0 -1 -1 -3 -4
11 8 12 11 10 9 6 0 -5 -6 -3 1 2 2 3 1 1 1 2 3 3 4 4 5 5 5 1 -4 -3 -3 -4 -4
11 11 9 8 9 7 3 -1 -4 -2 1 3 2 -1 0 -0 1 2 2 3 4 5 5 5 5 6 3 -5 -5 -4 -4 -4
9 11 8 9 10 8 1 -2 -2 -2 1 1 -1 -1 -1 1 0 2 2 4 5 5 5 6 6 6 4 -4 -3 -3 -3 -4
10 10 11 10 8 4 2 2 1 3 1 0 -1 -1 0 -1 2 2 1 4 6 6 6 6 7 5 -3 -2 -2 -3 -3 -4
11 11 10 8 6 6 4 2 -1 1 -0 -0 0 1 0 -0 0 0 2 5 6 7 7 7 5 -3 -1 -2 -2 -1 -1 -3
11 10 9 8 5 5 1 1 3 1 2 4 5 1 0 -1 -0 -0 2 6 7 7 7 5 2 -2 -1 -1 -1 -1 -1 -2
10 10 9 8 6 1 2 3 6 3 3 3 1 6 2 4 4 2 5 7 8 7 6 6 2 -1 -1 -1 -2 -1 1 0
10 9 9 7 3 3 4 3 3 5 4 2 4 3 7 7 7 8 8 8 8 7 7 6 1 -0 -0 -0 -1 -1 2 2
9 8 7 6 5 5 2 3 5 6 4 3 5 7 6 7 7 7 8 8 8 8 7 7 1 0 -0 1 1 1 2 2
9 8 8 8 7 6 5 6 6 4 3 3 4 4 4 4 7 8 8 9 8 8 7 6 1 1 1 1 2 2 2 2
8 7 7 7 5 3 3 3 4 4 2 3 4 3 3 5 6 7 8 8 8 7 6 5 2 1 1 2 2 2 1 1
7 7 6 6 4 3 4 4 3 3 2 2 2 1 3 6 6 8 8 8 8 7 6 5 2 1 1 3 3 2 2 0
5 4 5 5 4 3 4 4 3 4 3 2 -1 -0 2 5 7 8 8 9 9 7 6 5 4 1 2 3 3 2 2 1
3 3 2 3 2 2 2 3 3 3 2 2 4 4 5 6 8 8 8 9 9 8 6 5 5 3 3 4 3 3 2 1
3 5 6 5 5 5 5 5 6 6 6 6 7 5 6 6 7 7 8 8 9 8 8 6 4 3 4 4 4 3 2 -1
4 5 7 8 9 9 7 7 7 7 7 7 6 6 4 4 7 7 8 9 9 8 7 5 5 5 5 5 4 4 0 -0

GFSFLT2_850_dewp_087.txt.gz
Dewpoint
10 11 11 10 8 7 7 9 5 4 -7 -7 -3 2 2 -1 -2 -1 2 5 6 6 6 5 5 5 6 6 4 3 1 -4
8 9 10 11 10 11 9 9 7 -0 -7 -4 4 2 3 -1 -1 -1 1 5 5 4 5 5 5 5 5 4 3 1 -1 -4
10 10 10 11 11 11 9 9 6 -4 -8 -2 9 5 3 -0 -0 1 1 1 1 1 1 4 5 4 4 3 2 -1 -3 -4
10 9 10 10 11 10 10 10 8 -2 -7 9 10 8 4 1 0 1 1 2 3 4 3 1 3 4 3 1 -2 -2 -4 -4
10 10 11 11 10 10 10 9 8 0 -0 8 8 7 5 3 1 2 2 2 3 4 4 4 3 1 -3 -4 -4 -3 -4 -4
11 9 10 11 9 11 10 10 6 2 1 2 5 6 5 5 2 1 2 2 3 4 4 4 4 5 1 -5 -4 -4 -4 -4
11 9 10 10 10 10 9 7 4 -0 1 3 4 5 3 0 -0 1 1 2 3 4 5 4 5 5 2 -4 -3 -3 -4 -4
11 10 10 10 9 9 6 3 0 -2 3 5 4 0 -0 -1 1 1 1 3 5 4 5 5 6 6 -2 -2 -2 -3 -3 -3
11 9 9 11 10 8 6 1 1 2 4 2 -0 -0 -0 -1 0 2 0 4 5 6 6 6 6 4 -3 -2 -2 -2 -1 -2
11 10 9 10 9 6 3 5 4 6 5 3 1 -0 1 -1 0 1 2 5 5 6 7 7 6 -2 -2 -2 -2 -1 -1 -2
11 11 11 10 7 5 6 6 5 4 3 3 2 2 1 0 1 3 3 5 6 6 7 7 2 -2 -1 -1 -2 -1 0 1
10 10 10 9 7 6 6 4 1 1 4 6 2 2 2 1 3 4 3 5 6 7 7 6 4 0 -1 -1 -1 -1 0 1
9 10 10 9 6 6 3 6 3 2 3 5 3 2 1 4 6 5 6 6 7 8 7 7 6 2 -0 -0 -0 -0 0 1
9 9 9 8 7 4 4 8 6 4 4 4 3 2 3 6 7 7 7 7 8 8 8 7 6 3 0 -0 0 0 1 2
9 9 8 8 6 4 3 4 5 7 4 3 2 4 4 4 6 6 7 7 8 8 8 7 7 5 1 0 1 1 1 2
7 7 8 8 6 4 5 4 4 4 5 4 3 3 4 4 5 7 7 8 8 8 8 8 7 6 3 1 1 1 1 1
7 7 7 7 7 7 6 5 5 6 5 3 3 3 4 4 4 7 7 7 7 8 8 8 8 5 4 2 2 2 2 3
5 4 5 6 6 5 4 3 3 4 3 3 3 3 3 3 2 3 5 7 7 8 8 9 8 6 4 2 2 3 3 3
3 4 3 4 5 4 3 4 4 4 3 3 2 2 2 2 0 2 5 7 7 8 9 9 8 6 5 3 3 3 4 3
1 1 1 2 3 3 3 3 3 4 3 3 2 1 -1 -2 1 4 5 6 7 7 9 9 8 6 4 4 5 5 5 4

GFSFLT2_850_dewp_090.txt.gz
Dewpoint
10 10 9 7 6 5 4 2 5 3 -1 0 -4 3 1 -1 3 5 5 4 5 5 5 6 7 6 4 3 1 -2 -5 -6
8 10 11 8 8 8 6 5 6 6 3 -1 -2 4 0 -1 4 6 5 5 6 5 5 5 6 6 4 2 -1 -3 -4 -5
9 9 10 11 11 8 7 6 8 8 6 5 5 4 -0 -0 5 6 6 6 6 5 5 5 4 4 3 1 -1 -3 -4 -4
11 10 9 10 12 10 9 9 9 8 9 7 6 4 1 1 5 6 5 5 5 4 5 5 4 3 2 -1 -3 -4 -3 -4
11 11 10 9 10 12 10 9 9 9 7 9 7 3 2 2 4 3 3 2 1 0 1 3 3 2 -2 -5 -4 -3 -4 -4
10 10 9 10 11 12 11 9 10 9 7 10 8 4 2 2 2 3 2 3 3 4 4 3 1 -2 -4 -5 -4 -3 -4 -4
10 10 10 10 11 11 11 10 9 8 10 9 9 5 1 2 2 2 3 4 3 4 5 4 4 1 -3 -5 -3 -3 -3 -4
11 10 10 11 11 11 10 10 8 8 8 10 10 4 2 1 1 2 2 3 4 4 4 5 5 4 -3 -3 -2 -3 -3 -3
11 10 10 10 10 10 9 9 8 5 7 5 7 5 4 1 -0 0 0 3 5 5 5 5 5 5 -3 -2 -2 -2 -1 -2
11 9 10 10 10 10 10 9 5 -1 4 4 5 5 2 0 1 1 -1 4 5 5 5 6 6 5 -3 -2 -2 -1 -1 -3
10 10 10 8 10 10 10 7 3 3 3 2 5 3 3 4 4 0 1 4 5 6 6 6 6 1 -2 -2 -2 -1 -1 0
10 10 10 10 9 9 7 6 4 5 5 5 2 1 4 5 3 3 1 5 5 6 6 7 6 1 -1 -1 -1 -1 -1 1
10 10 10 10 9 6 5 8 7 8 7 7 2 6 7 4 4 3 2 5 5 6 7 7 5 2 -1 -1 -1 -1 -1 -0
9 9 9 9 7 6 6 8 7 6 4 1 2 2 4 4 2 3 3 5 6 7 7 7 6 5 2 -0 -0 -0 -0 -0
9 9 9 9 7 5 6 6 7 7 5 3 3 5 4 2 2 3 5 6 7 7 7 8 7 6 6 2 0 0 -0 -0
8 9 9 9 8 6 6 5 4 4 3 5 6 4 3 2 4 5 7 8 7 7 8 8 8 7 6 4 2 1 1 1
8 9 9 9 8 7 5 6 6 4 3 3 4 4 3 3 5 5 6 7 7 8 8 8 8 8 7 7 5 1 1 1
8 8 8 8 8 7 6 3 2 4 4 4 4 2 3 5 5 5 4 4 6 7 7 8 8 8 8 7 6 3 2 2
7 7 8 8 8 7 6 5 5 5 5 4 4 4 4 3 3 4 3 3 3 5 7 7 8 9 8 8 6 3 3 4
2 2 5 6 6 7 6 6 5 6 5 5 4 4 3 3 3 2 2 3 1 2 5 7 8 8 8 9 7 6 5 5

GFSFLT2_850_dewp_093.txt.gz
Dewpoint
8 11 11 8 8 9 7 5 1 1 -1 -3 -7 -4 0 1 5 6 6 5 5 6 6 6 5 4 2 -1 -5 -6 -6 -5
10 11 7 8 8 11 8 4 1 1 -1 -4 -5 -4 1 6 2 4 5 5 5 6 6 6 5 3 2 -2 -4 -5 -5 -6
9 10 11 9 10 10 9 7 4 1 -2 -0 -0 1 4 5 4 5 6 6 5 5 6 6 5 3 1 -2 -4 -4 -4 -1
8 10 11 10 10 9 8 10 6 1 3 7 4 3 2 2 6 6 6 5 5 5 6 6 4 2 0 -2 -4 -3 -4 -3
10 11 9 11 10 10 10 10 7 5 5 6 3 3 1 5 6 6 6 5 5 5 5 5 3 2 -3 -4 -4 -3 -4 -0
10 10 10 10 10 11 11 10 8 7 7 8 6 4 3 5 6 6 5 5 4 5 5 4 3 -1 -4 -4 -3 -3 -4 -3
9 9 10 10 11 11 11 10 9 9 8 9 4 4 4 5 5 5 4 1 1 2 3 2 1 -3 -4 -4 -3 -3 -4 -3
9 9 10 9 9 9 11 10 9 9 9 7 5 5 4 5 5 2 2 2 3 4 4 3 3 0 -4 -4 -3 -3 -4 -4
10 10 10 10 10 10 10 11 10 10 9 8 7 5 3 3 2 1 3 3 4 4 5 4 4 4 -4 -3 -3 -3 -3 -3
11 10 10 10 10 10 10 10 10 10 8 8 9 5 2 2 2 2 3 3 4 4 5 5 5 5 -2 -2 -3 -2 -1 -3
10 10 10 10 10 10 10 10 10 8 9 7 7 6 1 1 2 2 3 4 4 4 5 5 5 5 -1 -2 -2 -1 -1 -2
10 10 10 10 10 10 10 9 9 9 7 6 7 6 2 2 2 2 3 4 5 5 6 6 6 5 -1 -2 -2 -1 -1 0
10 10 10 9 10 10 10 9 9 4 5 4 5 6 6 4 4 3 3 5 3 4 6 6 6 3 -1 -2 -1 -2 -1 -1
10 9 10 10 10 10 10 9 5 1 5 5 5 7 4 4 5 6 4 5 5 5 6 7 6 4 1 -1 -1 -1 -1 -1
9 8 9 10 10 9 8 5 3 4 8 5 6 4 4 4 7 6 4 3 3 4 6 7 7 6 4 2 1 1 0 -0
9 8 9 9 9 8 6 4 5 6 8 7 6 4 3 5 4 4 3 3 2 4 5 6 7 7 6 5 4 3 1 1
8 9 9 9 8 7 5 6 7 7 6 6 3 2 3 3 4 6 4 2 4 6 7 8 8 8 8 7 5 4 3 2
8 8 9 9 8 7 5 4 7 6 5 4 2 2 2 5 5 4 4 5 5 5 6 7 8 9 8 8 7 6 5 5
8 8 8 8 8 8 6 6 5 4 6 4 2 3 4 4 4 6 6 4 5 5 5 6 7 7 8 8 8 8 6 6
6 6 7 8 8 8 7 7 5 4 3 3 1 2 4 3 4 4 4 4 4 5 3 3 3 3 5 7 8 9 8 7

GFSFLT2_850_dewp_096.txt.gz
Dewpoint
9 9 8 9 13 12 11 12 11 10 9 4 -3 -5 4 6 3 5 5 4 5 5 4 3 2 -2 -6 -7 -5 5 6 6
8 10 6 11 10 12 11 12 10 11 7 0 -3 -0 2 3 5 6 6 5 6 6 5 4 2 -1 -4 -5 -5 2 6 6
9 8 7 10 10 10 11 12 12 9 4 2 2 4 4 5 9 5 5 6 7 7 6 4 2 -1 -4 -4 1 5 6 6
11 10 9 7 8 8 7 8 12 7 2 5 8 4 7 11 7 5 5 6 6 7 6 4 3 -0 -3 -2 5 6 6 6
11 11 11 9 10 8 9 9 10 8 4 2 9 9 9 10 8 6 6 6 6 7 7 6 7 6 2 6 5 6 6 6
11 11 11 12 11 10 11 11 10 9 7 7 9 9 10 8 8 9 6 8 8 8 8 8 8 7 5 3 6 6 6 6
11 11 11 11 11 11 11 10 10 10 10 7 9 9 10 7 8 9 9 9 9 9 9 7 3 0 5 3 6 6 7 6
10 9 9 10 11 11 11 10 10 11 11 9 9 9 5 5 8 8 9 9 9 9 8 5 1 2 -1 -2 4 5 6 6
11 10 11 10 10 9 10 11 10 9 11 9 7 4 3 1 3 8 7 8 8 8 5 5 2 1 -2 -3 -1 4 5 6
10 11 9 10 9 9 9 11 11 10 10 10 9 6 3 1 4 7 6 6 5 4 5 3 3 2 1 -0 0 -1 4 7
10 10 9 9 10 9 10 10 10 10 10 10 9 7 3 -0 5 6 2 3 4 4 4 4 5 3 2 1 1 1 1 5
10 10 9 10 10 10 10 10 10 10 10 10 8 7 5 2 5 3 3 4 4 5 5 5 5 4 2 2 2 2 2 4
10 10 10 10 10 10 10 10 10 11 10 10 10 8 5 2 2 2 3 3 4 5 5 5 6 5 2 2 1 -2 -1 -1
10 10 10 10 10 9 10 10 10 10 10 9 9 9 4 2 2 2 4 5 4 5 6 6 6 6 4 2 1 1 -1 -1
10 9 10 10 10 9 9 10 10 10 9 8 7 9 5 2 3 3 3 3 4 5 5 6 6 6 5 3 3 3 3 2
9 9 9 9 10 10 9 9 9 7 6 7 7 8 8 7 4 4 4 4 4 4 5 3 6 6 5 5 4 4 4 4
9 9 9 9 9 10 10 9 5 5 6 6 5 5 5 7 5 4 7 5 4 2 3 4 5 6 6 6 5 4 3 4
8 9 8 9 9 9 9 7 4 3 6 7 6 6 7 6 5 3 5 5 3 3 2 3 5 6 7 8 7 7 6 5
8 8 8 9 9 8 8 6 4 4 5 9 8 7 6 4 4 4 4 3 3 3 3 5 6 7 7 8 8 8 8 7
8 8 8 8 9 9 7 8 6 6 7 8 7 5 4 3 3 3 2 3 4 5 6 6 6 5 5 5 5 5 6 6